This is the latest recevied weather packets stored in our database for station/object SQ9SMC-13. If no packets are shown the sender has not sent any weather packets the latest 10 day(s).
| Time | Temp. | Humidity | Pressure | Rain* | Wind** | Luminosity | Snow |
|---|---|---|---|---|---|---|---|
| 1777308604 | 12.78° C | 36% | 1022.6 hPa | 0 mm | - | 35 W/m² | - |
| 1777308303 | 12.78° C | 35% | 1022.6 hPa | 0 mm | - | 36 W/m² | - |
| 1777308003 | 13.33° C | 36% | 1022.4 hPa | 0 mm | - | 43 W/m² | - |
| 1777307703 | 13.33° C | 34% | 1022.5 hPa | 0 mm | - | 50 W/m² | - |
| 1777307403 | 13.33° C | 34% | 1022.6 hPa | 0 mm | - | 59 W/m² | - |
| 1777307102 | 13.89° C | 35% | 1022.5 hPa | 0 mm | - | 67 W/m² | - |
| 1777306805 | 13.89° C | 34% | 1022.4 hPa | 0 mm | - | 57 W/m² | - |
| 1777306503 | 13.89° C | 34% | 1022.7 hPa | 0 mm | - | 59 W/m² | - |
| 1777306203 | 13.89° C | 34% | 1022.6 hPa | 0 mm | - | 97 W/m² | - |
| 1777305906 | 13.89° C | 35% | 1022.6 hPa | 0 mm | - | 113 W/m² | - |
| 1777305603 | 13.89° C | 34% | 1022.5 hPa | 0 mm | - | 121 W/m² | - |
| 1777305303 | 13.89° C | 34% | 1022.6 hPa | 0 mm | - | 137 W/m² | - |
| 1777305003 | 13.89° C | 34% | 1022.6 hPa | 0 mm | - | 146 W/m² | - |
| 1777304703 | 13.89° C | 35% | 1022.6 hPa | 0 mm | - | 156 W/m² | - |
| 1777304404 | 14.44° C | 34% | 1022.6 hPa | 0 mm | - | 166 W/m² | - |
| 1777304104 | 14.44° C | 33% | 1022.6 hPa | 0 mm | - | 179 W/m² | - |
| 1777303804 | 15° C | 32% | 1022.7 hPa | 0 mm | - | 191 W/m² | - |
| 1777303503 | 15° C | 33% | 1022.5 hPa | 0 mm | - | 201 W/m² | - |
| 1777303203 | 14.44° C | 34% | 1022.8 hPa | 0 mm | - | 213 W/m² | - |
| 1777302906 | 15° C | 32% | 1022.7 hPa | 0 mm | - | 224 W/m² | - |
| 1777302605 | 15° C | 33% | 1022.6 hPa | 0 mm | - | 238 W/m² | - |
| 1777302304 | 15° C | 34% | 1022.7 hPa | 0 mm | - | 249 W/m² | - |
| 1777302004 | 14.44° C | 32% | 1022.7 hPa | 0 mm | - | 263 W/m² | - |
| 1777301703 | 14.44° C | 32% | 1022.9 hPa | 0 mm | - | 276 W/m² | - |
| 1777301405 | 14.44° C | 33% | 1023.2 hPa | 0 mm | - | 288 W/m² | - |
* Rain latest hour (hover to see other rain measurements)
** Current wind speed in m/s (hover to see current wind gust speed)